Iowa City, IA

2:10 AM CDT on August 20, 2017 (GMT -0500)
Iowa City Municipal

Weather History for KIOW - November, 2011

Change the Weather History Date:

Wednesday, November 30, 2011

  Actual Average Record
Temperature  
Mean Temperature 30 °F 31 °F  
Max Temperature 45 °F 39 °F 66 °F (1998)
Min Temperature 15 °F 23 °F -5 °F (1964)
Degree Days  
Heating Degree Days 35 34  
Month to date heating degree days 705 784  
Since 1 July heating degree days 1222 1307  
Cooling Degree Days 0 0  
Month to date cooling degree days 0 0  
Year to date cooling degree days 1092 912  
Moisture  
Dew Point 17 °F    
Average Humidity 57    
Maximum Humidity 88    
Minimum Humidity 25    
Precipitation  
Precipitation 0.00 in 0.07 in 0.75 in (1975)
Month to date precipitation 3.07 2.35  
Year to date precipitation 32.35 34.76  
Sea Level Pressure  
Sea Level Pressure 30.13 in    
Wind  
Wind Speed 5 mph (SSE)    
Max Wind Speed 16 mph    
Max Gust Speed 18 mph    
Visibility 10 miles    
Events      
T = Trace of Precipitation, MM = Missing Value Source: NWS Daily Summary

Daily Weather History Graph

Daily Weather History Graph

Search for Another Location

Airport or City:

Trip Planner

Search our weather history database for the weather conditions in past years. The results will help you decide how hot, cold, wet, or windy it might be!

Date:

Astronomy

Nov. 30, 2011 Rise Set
Actual Time 7:12 AM CST 4:37 PM CST
Civil Twilight 6:41 AM CST 5:07 PM CST
Nautical Twilight 6:06 AM CST 5:42 PM CST
Astronomical Twilight 5:33 AM CST 6:15 PM CST
Moon 11:27 AM CST (11/30) 10:37 PM CST (11/30)
Length of Visible Light 10h 26m
Length of Day
9h 24m
Waxing Crescent, 34% of the Moon is Illuminated
Nov 30
Waxing Crescent
Dec 2
First Quarter
Dec 10
Full
Dec 17
Last Quarter
Dec 24
New

Hourly Weather History & Observations

Time (CST) Temp. Windchill Dew Point Humidity Pressure Visibility Wind Dir Wind Speed Gust Speed Precip Events Conditions
12:52 AM 25.0 °F 17.1 °F 16.0 °F 69% 30.14 in 10.0 mi NW 6.9 mph - N/A   Clear
1:52 AM 24.1 °F 13.1 °F 15.1 °F 69% 30.14 in 10.0 mi NW 11.5 mph - N/A   Clear
2:52 AM 21.9 °F 14.5 °F 14.0 °F 72% 30.15 in 10.0 mi NW 5.8 mph - N/A   Clear
3:52 AM 19.0 °F - 12.9 °F 77% 30.14 in 10.0 mi Calm Calm - N/A   Clear
4:52 AM 18.0 °F - 12.9 °F 81% 30.14 in 10.0 mi Calm Calm - N/A   Clear
5:52 AM 17.1 °F - 12.0 °F 81% 30.15 in 10.0 mi Calm Calm - N/A   Clear
6:52 AM 16.0 °F 10.4 °F 12.0 °F 84% 30.16 in 10.0 mi SW 3.5 mph - N/A   Clear
7:52 AM 18.0 °F - 12.9 °F 81% 30.17 in 10.0 mi Calm Calm - N/A   Clear
8:52 AM 21.9 °F - 16.0 °F 78% 30.16 in 10.0 mi Calm Calm - N/A   Clear
10:52 AM 34.0 °F 31.0 °F 19.9 °F 56% 30.16 in 10.0 mi South 3.5 mph - N/A   Clear
11:52 AM 39.9 °F 35.8 °F 18.0 °F 41% 30.12 in 10.0 mi South 5.8 mph - N/A   Clear
12:52 PM 43.0 °F 37.2 °F 12.9 °F 30% 30.09 in 10.0 mi SSW 10.4 mph - N/A   Clear
3:52 PM 41.0 °F 35.2 °F 14.0 °F 33% 30.09 in 10.0 mi South 9.2 mph - N/A   Clear
4:52 PM 39.0 °F 34.0 °F 16.0 °F 39% 30.09 in 10.0 mi SSE 6.9 mph - N/A   Clear
5:52 PM 37.0 °F 32.4 °F 19.9 °F 50% 30.08 in 10.0 mi SSE 5.8 mph - N/A   Clear
6:52 PM 35.1 °F 30.1 °F 21.0 °F 57% 30.09 in 10.0 mi ESE 5.8 mph - N/A   Clear
7:52 PM 35.1 °F 30.1 °F 21.9 °F 59% 30.10 in 10.0 mi SE 5.8 mph - N/A   Clear
8:52 PM 35.1 °F 32.2 °F 21.9 °F 59% 30.11 in 10.0 mi SE 3.5 mph - N/A   Clear
9:52 PM 35.1 °F 30.1 °F 21.0 °F 57% 30.11 in 10.0 mi ESE 5.8 mph - N/A   Clear
10:52 PM 34.0 °F 31.0 °F 21.9 °F 61% 30.14 in 10.0 mi SSE 3.5 mph - N/A   Clear
11:52 PM 32.0 °F 28.7 °F 21.9 °F 66% 30.15 in 10.0 mi SE 3.5 mph - N/A   Clear